Back to catalog

SL-8 R/B

AlivePO
NORAD 28910·ROCKET BODY·🇷🇺 Russia

Launched Dec 21, 2005 from Plesetsk Cosmodrome

Loading…

Next Passes (next 24 hours)

TLE

FreshSource: Space-Track

Epoch: Sep 14, 2026, 10:38 UTC

1 28910U 05048C   26257.44346525 -.00000028  00000-0 -23695-3 0  9992
2 28910  82.4617 255.7675 0015963 261.0696 266.6474 12.54966804949597

Track SL-8 R/B in real time with AllMySat

Download on the App Store